Date String (YYYY-MM-DD hh:mm:ss) UTC,Instrument flags,Ambient pressure (hPa),Sample flow (lpm),Bypass flow (lpm),Sample temperature (°C),Ambient temperature (°C),ASC tube jacket temperature (°C),LED temperature (°C),Box temperature (°C),Sample RH (%),Span deviation,Mass concentration (μg/m³),Mass concentration (μg/m³),Mass concentration (μg/m³)
DateTimeUTC,F1_M11,P_M11,Q1_M11,Q2_M11,T1_M11,T2_M11,T3_M11,T4_M11,T5_M11,U1_M11,ZSPAN_M11,X2_M11,X0_M11,X1_M11
2022-05-16 15:00:00,,0825.9,5.01,0.00,29.4,28.8,00.0,38.4,31.2,17.7,0000.0,0004.49,0016.97,0002.68
2022-05-16 15:01:00,,0825.9,5.00,0.00,29.4,28.8,00.0,38.4,31.2,17.9,0000.0,0004.50,0015.97,0002.68
2022-05-16 15:02:00,,0825.9,4.99,0.00,29.4,28.8,00.0,38.4,31.2,17.9,0000.0,0004.54,0015.31,0002.70
2022-05-16 15:03:00,,0825.8,5.00,0.00,29.4,28.8,00.0,38.4,31.2,17.6,0000.0,0004.53,0015.82,0002.70
2022-05-16 15:04:00,,0825.8,4.99,0.00,29.4,28.8,00.0,38.4,31.2,17.6,0000.0,0004.59,0016.90,0002.69
2022-05-16 15:05:00,,0825.8,5.00,0.00,29.4,28.8,00.0,38.4,31.2,18.0,0000.0,0004.54,0017.43,0002.72
2022-05-16 15:06:00,,0825.8,5.01,0.00,29.5,28.8,00.0,38.4,31.2,17.9,0000.0,0004.48,0017.07,0002.70
2022-05-16 15:07:00,,0825.8,4.99,0.00,29.5,28.8,00.0,38.4,31.2,18.0,0000.0,0004.40,0016.63,0002.71
2022-05-16 15:08:00,,0825.7,4.99,0.00,29.5,28.8,00.0,38.4,31.3,18.2,0000.0,0004.41,0016.71,0002.71
2022-05-16 15:09:00,,0825.7,5.01,0.00,29.5,28.9,00.0,38.4,31.3,18.3,0000.0,0004.46,0016.58,0002.72
2022-05-16 15:10:00,,0825.7,5.00,0.00,29.5,28.9,00.0,38.4,31.3,18.2,0000.0,0004.49,0016.92,0002.72
2022-05-16 15:11:00,,0825.7,5.00,0.00,29.5,28.9,00.0,38.4,31.3,18.2,0000.0,0004.49,0016.86,0002.72
2022-05-16 15:12:00,,0825.6,5.01,0.00,29.5,28.9,00.0,38.4,31.4,18.1,0000.0,0004.41,0016.49,0002.70
2022-05-16 15:13:00,,0825.7,5.00,0.00,29.6,28.9,00.0,38.5,31.4,18.0,0000.0,0004.36,0016.60,0002.70
2022-05-16 15:14:00,,0825.6,4.99,0.00,29.6,28.9,00.0,38.5,31.4,18.1,0000.0,0004.37,0016.22,0002.70
2022-05-16 15:15:00,,0825.6,5.00,0.00,29.6,29.0,00.0,38.5,31.4,18.1,0000.0,0004.38,0015.60,0002.71
2022-05-16 15:16:00,,0825.7,5.01,0.00,29.6,29.0,00.0,38.5,31.4,17.8,0000.0,0004.39,0014.35,0002.70
2022-05-16 15:17:00,,0825.6,4.99,0.00,29.6,29.0,00.0,38.5,31.5,17.5,0000.0,0004.44,0014.42,0002.73
2022-05-16 15:18:00,,0825.6,5.00,0.00,29.6,29.0,00.0,38.5,31.5,17.5,0000.0,0004.56,0014.97,0002.75
2022-05-16 15:19:00,,0825.6,5.00,0.00,29.6,29.0,00.0,38.5,31.4,17.7,0000.0,0004.59,0015.38,0002.76
2022-05-16 15:20:00,,0825.6,5.01,0.00,29.6,29.0,00.0,38.5,31.5,17.7,0000.0,0004.55,0014.88,0002.77
2022-05-16 15:21:00,,0825.6,5.00,0.00,29.7,29.0,00.0,38.5,31.5,17.7,0000.0,0004.60,0014.00,0002.78
2022-05-16 15:22:00,,0825.6,5.01,0.00,29.7,29.0,00.0,38.5,31.5,18.0,0000.0,0004.57,0013.32,0002.79
2022-05-16 15:23:00,,0825.6,5.01,0.00,29.7,29.0,00.0,38.6,31.5,18.0,0000.0,0004.62,0012.91,0002.79
2022-05-16 15:24:00,,0825.6,4.99,0.00,29.7,29.0,00.0,38.6,31.5,17.8,0000.0,0004.60,0012.42,0002.79
2022-05-16 15:25:00,,0825.6,5.00,0.00,29.7,29.1,00.0,38.6,31.5,17.9,0000.0,0004.59,0012.41,0002.78
2022-05-16 15:26:00,,0825.5,5.00,0.00,29.7,29.1,00.0,38.6,31.5,17.9,0000.0,0004.56,0012.48,0002.79
2022-05-16 15:27:00,,0825.6,4.99,0.00,29.7,29.1,00.0,38.6,31.5,17.9,0000.0,0004.61,0012.66,0002.82
2022-05-16 15:28:00,,0825.5,5.00,0.00,29.8,29.1,00.0,38.6,31.6,17.8,0000.0,0004.62,0013.15,0002.81
2022-05-16 15:29:00,,0825.5,5.00,0.00,29.8,29.1,00.0,38.6,31.6,17.9,0000.0,0004.56,0012.61,0002.80
2022-05-16 15:30:00,,0825.5,5.00,0.00,29.8,29.1,00.0,38.6,31.6,17.8,0000.0,0004.56,0012.41,0002.81
2022-05-16 15:31:00,,0825.5,4.99,0.00,29.8,29.1,00.0,38.6,31.6,17.7,0000.0,0004.51,0012.69,0002.80
2022-05-16 15:32:00,,0825.5,5.01,0.00,29.8,29.1,00.0,38.6,31.6,17.8,0000.0,0004.45,0012.80,0002.80
2022-05-16 15:33:00,,0825.5,5.00,0.00,29.8,29.1,00.0,38.7,31.6,17.7,0000.0,0004.47,0013.69,0002.81
2022-05-16 15:34:00,,0825.5,5.00,0.00,29.8,29.1,00.0,38.7,31.6,17.9,0000.0,0004.47,0014.66,0002.81
2022-05-16 15:35:00,,0825.5,4.99,0.00,29.8,29.2,00.0,38.7,31.6,17.8,0000.0,0004.47,0015.33,0002.80
2022-05-16 15:36:00,,0825.5,5.00,0.00,29.8,29.2,00.0,38.7,31.6,18.0,0000.0,0004.44,0015.57,0002.81
2022-05-16 15:37:00,,0825.4,5.00,0.00,29.8,29.2,00.0,38.7,31.6,18.2,0000.0,0004.43,0016.30,0002.80
2022-05-16 15:38:00,,0825.4,5.00,0.00,29.8,29.2,00.0,38.7,31.6,17.8,0000.0,0004.34,0016.23,0002.77
2022-05-16 15:39:00,,0825.5,4.99,0.00,29.8,29.2,00.0,38.7,31.6,17.5,0000.0,0004.30,0015.96,0002.77
2022-05-16 15:40:00,,0825.5,4.99,0.00,29.9,29.2,00.0,38.7,31.6,17.3,0000.0,0004.34,0016.64,0002.77
2022-05-16 15:41:00,,0825.4,5.00,0.00,29.9,29.2,00.0,38.7,31.7,17.6,0000.0,0004.31,0017.33,0002.78
2022-05-16 15:42:00,,0825.4,5.01,0.00,29.9,29.2,00.0,38.7,31.7,17.9,0000.0,0004.34,0017.02,0002.79
2022-05-16 15:43:00,,0825.5,5.01,0.00,29.9,29.2,00.0,38.8,31.7,17.9,0000.0,0004.39,0016.79,0002.80
2022-05-16 15:44:00,,0825.4,5.01,0.00,29.9,29.2,00.0,38.8,31.7,17.7,0000.0,0004.37,0016.28,0002.79
2022-05-16 15:45:00,,0825.4,5.01,0.00,29.9,29.3,00.0,38.8,31.7,17.9,0000.0,0004.34,0015.92,0002.77
2022-05-16 15:46:00,,0825.4,4.99,0.00,29.9,29.3,00.0,38.8,31.7,17.6,0000.0,0004.32,0015.90,0002.76
2022-05-16 15:47:00,,0825.4,5.00,0.00,29.9,29.3,00.0,38.8,31.8,17.6,0000.0,0004.30,0015.82,0002.75
2022-05-16 15:48:00,,0825.5,5.00,0.00,29.9,29.3,00.0,38.8,31.8,17.7,0000.0,0004.28,0015.57,0002.73
2022-05-16 15:49:00,,0825.4,5.00,0.00,30.0,29.3,00.0,38.8,31.8,17.7,0000.0,0004.24,0015.27,0002.72
2022-05-16 15:50:00,,0825.4,5.00,0.00,30.0,29.3,00.0,38.8,31.8,17.4,0000.0,0004.25,0015.34,0002.71
2022-05-16 15:51:00,,0825.4,5.00,0.00,30.0,29.3,00.0,38.8,31.7,17.7,0000.0,0004.27,0015.55,0002.69
2022-05-16 15:52:00,,0825.4,5.00,0.00,30.0,29.3,00.0,38.8,31.8,17.8,0000.0,0004.31,0016.45,0002.66
2022-05-16 15:53:00,,0825.4,4.99,0.00,30.0,29.3,00.0,38.9,31.8,17.5,0000.0,0004.38,0017.63,0002.64
2022-05-16 15:54:00,,0825.4,5.00,0.00,30.0,29.4,00.0,38.9,31.8,17.6,0000.0,0004.40,0018.30,0002.63
2022-05-16 15:55:00,,0825.3,5.01,0.00,30.0,28.5,00.0,38.9,31.6,18.1,0000.0,0004.41,0018.70,0002.59
2022-05-16 15:56:00,,0825.4,5.00,0.00,29.9,26.4,00.0,38.8,31.2,18.1,0000.0,0004.45,0017.80,0002.61
2022-05-16 15:57:00,,0825.4,5.00,0.00,29.8,26.2,00.0,38.8,31.2,17.7,0000.0,0004.51,0018.89,0002.61
2022-05-16 15:58:00,,0825.3,5.00,0.00,29.7,26.6,00.0,38.8,31.2,17.8,0000.0,0004.57,0018.71,0002.62
2022-05-16 15:59:00,,0825.3,5.01,0.00,29.7,27.0,00.0,38.7,31.2,17.7,0000.0,0004.60,0019.85,0002.64
